Weather Roundup
Issued by NWS

Home | Current Version | Previous Version | Graphics & Text | Print | Product List | Glossary Off
Versions: 1 2 3 4 5 6 7 8 9 10 11 12 13 14 15 16 17 18 19 20 21 22 23 24 25 26 27 28 29 30 31 32 33 34 35 36 37 38 39 40 41 42 43 44 45 46 47 48 49 50

601
NZUS93 KARX 300459
HRRWXR

CURRENT HOURLY OBSERVATIONS ACROSS
MUCH OF THE UPPER MISSISSIPPI VALLEY
NATIONAL WEATHER SERVICE LA CROSSE WI
1200 AM CDT MON MAY 30 2016


...SOUTHEAST MINNESOTA...


CITY           SKY/WX    TMP DP  RH WIND       PRES   REMARKS
ROCHESTER      CLEAR     63  59  87 W7        30.03R
ROCHESTER/MAYO FAIR      67  58  74 W6        30.02S
WINONA         CLEAR     61  59  94 CALM      29.99S
AUSTIN         CLEAR     63  54  72 CALM      30.02S
ALBERT LEA     CLEAR     63  54  72 CALM      30.03S
DODGE CENTER   CLEAR     61  57  88 W5        30.02S
PRESTON        CLEAR     62  57  85 SW5       30.03R
OWATONNA       CLEAR     61  57  88 CALM      30.02S
FARIBAULT      CLEAR     59  57  94 CALM      30.01S
$$

...ELSEWHERE IN MINNESOTA...


CITY           SKY/WX    TMP DP  RH WIND       PRES   REMARKS
MINNEAPOLIS    CLEAR     67  57  70 CALM      29.99R
INTNL FALLS    CLEAR     46  45  96 CALM      29.90R
DULUTH         CLEAR     53  50  89 W9        29.93S
RED WING       CLEAR     59  57  94 CALM      29.98S
REDWOOD FALLS  CLEAR     61  50  67 CALM      30.00R
MANKATO        CLEAR     64  57  77 CALM      30.01S
WORTHINGTON    CLEAR     62  54  74 SW5       30.05S
FAIRMONT       CLEAR     63  52  67 SW3       30.02F
$$

...SOUTHWEST WISCONSIN...


CITY           SKY/WX    TMP DP  RH WIND       PRES   REMARKS
LA CROSSE      PTCLDY    65  60  84 S7        29.98S
PRAIRIE DU CHI CLEAR     62  58  87 CALM      30.00S
BOSCOBEL       CLEAR     60  59  96 CALM      30.00S FOG
LONE ROCK      NOT AVBL
PLATTEVILLE    PTCLDY    67  60  79 W3        30.01F
FORT MC COY    CLOUDY    58  56  93 CALM      30.00S
MAUSTON-NEW LI CLEAR     61  58  92 CALM      29.98S
VIROQUA        FAIR      63  58  81 SW3       30.02S
WIS DELLS      CLEAR     63  58  85 SW6       29.99S
$$

...ELSEWHERE IN WISCONSIN...


CITY           SKY/WX    TMP DP  RH WIND       PRES   REMARKS
MILWAUKEE      PTCLDY    69  58  67 W6        29.98R
MADISON        PTCLDY    63  60  90 CALM      29.99S
GREEN BAY      CLEAR     66  57  72 W6        29.95R
EAU CLAIRE     PTCLDY    61  56  83 CALM      29.97R
BLACK RVR FLS  CLOUDY    63  61  93 CALM      29.98R
MEDFORD        CLOUDY    61  57  86 W3        29.98R
WAUSAU         MOCLDY    60  56  86 CALM      29.96R
WIS RAPIDS     CLEAR     59  55  87 W6        29.99R
MARSHFIELD     MOCLDY    62  55  77 CALM      29.97S
RICE LAKE      PTCLDY    60  57  92 CALM      29.99R
$$

...NORTHEAST IOWA...


CITY           SKY/WX    TMP DP  RH WIND       PRES   REMARKS
WATERLOO       CLEAR     65  61  87 CALM      30.01R
DUBUQUE        MOCLDY    63  58  83 CALM      30.02S
DECORAH        CLEAR     64  59  82 SW3       30.00F
MASON CITY     CLEAR     59  53  80 W6        30.04S
CHARLES CITY   CLEAR     66  54  63 W8        30.03R
OELWEIN        MOCLDY    66  59  77 S7        30.03R
$$

...ELSEWHERE IN IOWA...


CITY           SKY/WX    TMP DP  RH WIND       PRES   REMARKS
DES MOINES     CLOUDY    71  58  63 S5        30.02S
IOWA CITY      CLEAR     67  57  70 CALM      30.03S
FORT DODGE     CLOUDY    61  52  72 E3        30.04S
MARSHALLTOWN   CLOUDY    66  58  75 N3        30.02R
CEDAR RAPIDS   PTCLDY    67  59  75 S3        30.01S
$$

...NORTHERN ILLINOIS...


CITY           SKY/WX    TMP DP  RH WIND       PRES   REMARKS
CHICAGO-OHARE  CLEAR     67  58  72 W5        30.00S
CHICAGO-MIDWAY CLEAR     71  57  61 W6        30.00S
MOLINE         MOCLDY    72  56  57 CALM      30.02S
ROCKFORD       CLEAR     67  57  70 W3        30.03R
PEORIA         CLEAR     66  58  75 CALM      30.04S
$$

NOTE: "FAIR" INDICATES FEW OR NO CLOUDS BELOW 12,000 FEET WITH NO
SIGNIFICANT WEATHER AND/OR OBSTRUCTIONS TO VISIBILITY. WIND
SPEEDS ARE IN MILES-PER-HOUR.




USA.gov is the U.S. government's official web portal to all federal, state and local government web resources and services.